#timestamp,LO_Frequency,Hit 
1504396815.8,286046997.9,N
1504396835.6,286046998.8,N
1504396855.4,286046998.7,N
1504396875.3,286047000.8,N
1504396895.1,286047000.3,N
1504396896.0,286047000.3,N
1504396915.8,286047000.7,N
1504396935.6,286047002.6,N
1504396955.5,286047000.0,N
1504396975.3,286046999.5,N
1504396995.1,286046999.5,N
1504397015.9,286046997.1,N
1504397035.7,286046995.2,N
1504397055.5,286046996.2,N
1504397075.4,286046996.0,N
1504397095.2,286046996.1,N
1504397115.0,286046993.3,P
1504397115.9,286046993.3,N
1504397135.8,286046997.6,N
1504397155.6,286046995.7,N
1504397175.4,286046995.0,N
1504397195.3,286046994.9,N
1504397215.1,286046995.3,N
1504397216.0,286046995.3,N
1504397235.8,286046995.8,N
1504397255.7,286046993.4,P
1504397275.5,286046999.6,N
1504397295.3,286047000.8,N
1504397315.2,286046999.7,N
1504397335.9,286047003.4,N
1504397355.7,286047003.3,N
1504397375.6,286047004.8,N
1504397395.4,286047009.1,N
1504397415.2,286047007.7,N
1504397435.0,286047010.6,N
1504397436.0,286047010.6,N
1504397455.8,286047007.3,N
1504397475.6,286047006.9,N
1504397495.4,286047010.5,N
1504397515.3,286047011.9,N
1504397535.1,286047008.2,N
1504397555.8,286047008.8,N
1504397575.7,286047006.5,N
1504397595.5,286047005.3,N
1504397615.3,286047005.7,N
1504397635.2,286047007.4,N
1504397655.9,286047008.9,N
1504397675.7,286047007.3,N
1504397695.6,286047009.2,N
1504397715.4,286047007.2,N
1504397735.2,286047004.8,N
1504397755.0,286047003.3,N
1504397755.9,286047003.3,N
1504397775.8,286047006.8,N
1504397795.6,286047006.8,N
1504397815.4,286047006.7,N
1504397835.3,286047006.5,N
1504397855.1,286047004.8,N
1504397875.8,286047006.3,N
1504397895.7,286047006.2,N
1504397915.5,286047005.9,N
1504397935.3,286047004.6,N
1504397955.2,286047006.5,P
1504397975.9,286047002.4,P
1504397995.7,286046998.5,N
1504398015.6,286046998.9,N
1504398035.4,286047000.2,N
1504398055.2,286047000.9,N
1504398075.1,286047002.5,N
1504398076.0,286047002.5,N
1504398095.8,286047003.9,N
1504398115.6,286047001.3,N
1504398135.5,286047000.1,N
1504398155.3,286047001.2,N
1504398175.1,286047000.1,N
1504398195.8,286046997.0,N
1504398215.7,286047000.7,N
1504398235.5,286046996.7,N
1504398255.3,286047001.2,N
1504398275.2,286047001.0,N
1504398295.9,286047000.6,N
1504398315.7,286047002.5,N
1504398335.6,286047001.9,N
1504398355.4,286047002.2,N
1504398375.2,286046999.8,N
1504398395.1,286047002.0,N
1504398396.0,286047002.0,N
1504398415.8,286047003.2,N
1504398435.6,286047004.1,N
1504398455.5,286047006.0,N
1504398475.3,286047003.5,N
1504398495.1,286047003.1,N
1504398515.8,286047003.0,N
1504398535.7,286047003.1,N
1504398555.5,286047003.1,N
1504398575.3,286047002.7,N
1504398595.2,286046999.9,N
1504398615.9,286047001.1,N
1504398635.7,286046999.7,N
1504398655.9,286047000.8,N
1504398675.7,286047004.3,N
1504398695.9,286047003.6,N
1504398715.7,286047005.7,N
1504398735.6,286047004.7,N
1504398755.4,286047005.8,N
1504398775.2,286047004.0,N
1504398795.0,286047001.4,N
1504398795.9,286047001.4,N
1504398815.8,286047002.7,N
1504398835.6,286047004.3,N
1504398855.5,286047005.6,P
1504398875.3,286047002.7,N
1504398895.1,286047001.8,N
1504398915.8,286047001.9,N
1504398935.7,286047001.4,N
1504398955.5,286047000.8,N
1504398975.3,286047000.8,N
1504398995.2,286046999.6,N
1504399015.9,286047000.5,N
1504399035.7,286047000.8,N
1504399055.6,286046999.8,N
1504399075.4,286047001.7,N
1504399095.2,286047003.3,N
1504399115.1,286047004.7,P
1504399116.0,286047004.7,P
1504399135.8,286047002.0,N
1504399155.6,286047001.5,N
1504399175.5,286047000.4,N
1504399195.3,286047000.8,N
1504399215.1,286046999.6,N
1504399235.9,286047001.2,N
1504399255.7,286046999.9,N
1504399275.5,286047001.7,N
1504399295.4,286047003.7,N
1504399315.2,286047005.8,P
1504399335.0,286047003.9,N
1504399335.9,286047003.9,N
1504399355.8,286047001.5,N
1504399375.6,286047001.4,N
1504399395.4,286046999.9,N
1504399415.3,286047001.4,N
1504399435.1,286047004.8,N
1504399436.0,286047004.8,N
1504399455.8,286047004.3,N
1504399475.6,286046998.2,N
1504399495.5,286047000.9,N
1504399515.3,286046999.2,N
1504399535.1,286046999.4,N
1504399555.9,286047000.8,N
1504399575.7,286047001.5,N
1504399595.5,286047001.9,N
1504399615.4,286047002.8,N
1504399635.2,286047000.2,N
1504399655.0,286047002.4,N
1504399655.9,286047002.4,N
1504399675.8,286046998.1,N
1504399695.6,286047000.7,N
1504399715.4,286047001.2,N
1504399735.3,286047002.0,N
1504399755.1,286047001.6,N
1504399756.0,286047001.6,N
1504399775.8,286047002.7,N
1504399795.7,286047001.8,N
1504399815.5,286047002.0,N
1504399835.3,286047004.4,N
1504399855.1,286047004.4,N
1504399875.9,286047003.8,N
1504399895.7,286047004.4,N
1504399915.5,286047003.4,N
1504399935.4,286047002.9,N
1504399955.2,286047004.2,N
1504399975.0,286047003.8,N
1504399975.9,286047003.8,N
1504399995.8,286047002.3,N
1504400015.6,286047000.6,N
1504400035.4,286047002.4,N
1504400055.3,286047004.0,N
1504400075.1,286047001.7,N
1504400076.0,286047001.7,N
1504400095.8,286047001.4,N
1504400115.7,286047002.9,N
1504400135.5,286047004.3,P
1504400155.3,286047004.0,P
1504400175.2,286047003.5,P
1504400195.9,286047001.9,N
1504400215.7,286046998.5,N
1504400235.6,286046998.9,N
1504400255.4,286046995.0,N
1504400275.2,286046995.4,N
1504400295.0,286046995.1,N
1504400296.0,286046995.1,N
1504400315.8,286046995.0,N
1504400335.6,286046999.5,N
1504400355.4,286046996.5,N
1504400375.3,286046997.0,N
1504400395.1,286046994.9,N
